Find Starlink 2396

NORAD ID: 47815 Int'l Des: 2021-018 Owner: SPXS Country: US Constellation: starlink operational
LEOCIRCULAR

リアルタイム位置

3D地球を読み込み中...

Starlink 2396について

説明を読み込み中...

次回通過

Passes for default location (London). Set your location on the main map for personalized predictions.

高度履歴

Loading altitude history...

軌道要素

1 47815U 21018AE 26121.92781588 .00003478 00000-0 12374-3 0 9999
2 47815 53.1603 355.1859 0000875 100.0240 260.0861 15.31709919284875
Epoch: May 1, 2026 • Age: 9 hours

現在のステータス

高度 471.3 km
速度 7.63 km/s
衛星直下点 3.37°N, 20.41°E
打ち上げ日 Mar 11, 2021
運用期間 5.1 years
タイプ internet

技術仕様

分類 Payload
質量 260.00 kg
乾燥質量 248.00 kg
総質量 260.00 kg
長さ 0.20 m
直径 2.80 m
スパン 9.00 m
形状 Box + pan
製造者 SPXS
バスタイプ Starlink
フェーズステータス In Orbit
所有者/国 SPXS/US

Most Searched